METAR Formatted Surface Weather Observation
Issued by NWS

Home | Current Version | Previous Version | Text Only | Print | Product List | Glossary On
Versions: 1 2 3 4 5 6 7 8 9 10 11 12 13 14 15 16 17 18 19 20 21 22 23 24 25 26 27 28 29 30 31 32 33 34 35 36 37 38 39 40 41 42 43 44 45 46 47 48 49 50
905
SAUS41 KLWX 212353
MTRNHK
METAR KNHK 212352Z 17005KT 10SM FEW030 SCT100 BKN280 26/24 A3012 RMK
AO2 SLP201 OCNL LTGIC DSNT SW TS DSNT SW MOV SE T2 SET 60001
T02560239 10289 20256 55001



USA.gov is the U.S. government's official web portal to all federal, state and local government web resources and services.